Location: Dover
(48.8500°N, 53.9833°W)
Time: 18:11:43
(UTC+00:00)

Cosmos 1943 Rocket - Pass Details

Date: 14 November 2025
Orbit: 812 x 841 km, 71.0° (Epoch: 10 December)

Event Time Altitude Azimuth Distance (km) Brightness Sun altitude
Rises 23:47:37 0° 251° (WSW) 3,378 6.0 -37.8°
Reaches altitude 10° 23:50:35 10° 266° (W) 2,442 5.2 -38.2°
Enters shadow 23:54:53 23° 317° (NW) 1,717 4.2 -38.9°
